Theta_e
284 282 278 277 278 278 278 277 277 278 279 278 278 279 283 284 285 285 285 286 286 286 289 290 290 290 289 290 288 288 287 288 289 289 290 291 292 296 299 302 304 306 309 318
282 276 277 279 279 277 278 277 277 279 279 279 279 279 283 284 283 284 284 285 285 286 287 288 288 289 289 288 288 287 287 287 288 289 289 290 291 293 296 301 304 304 305 309
280 276 278 277 277 277 276 274 274 274 278 280 279 279 280 284 285 285 286 286 286 285 285 286 286 287 288 287 287 287 287 286 287 287 288 288 290 291 292 294 296 299 301 304
277 277 276 277 275 276 275 276 275 275 276 277 279 277 279 283 283 284 284 284 284 284 285 286 286 286 287 287 288 288 287 286 286 287 286 284 284 285 288 289 292 295 299 302
275 275 275 275 274 276 275 277 276 276 276 276 277 276 280 282 280 282 282 283 284 284 285 285 285 286 287 287 287 287 287 287 286 286 285 284 283 284 286 288 288 291 294 297
276 278 277 275 276 276 277 276 276 277 277 274 276 275 279 280 281 281 282 283 283 284 284 285 286 286 286 287 286 286 286 286 286 286 285 284 283 283 283 284 285 287 289 292
275 275 276 277 276 277 278 276 277 275 274 275 276 273 279 282 281 281 280 281 283 284 284 284 284 284 285 285 285 285 285 284 285 285 285 284 284 283 282 282 283 284 286 288
276 275 274 276 274 272 274 274 275 270 272 274 274 271 279 283 283 282 282 282 283 283 283 283 284 284 284 284 284 284 284 283 284 284 284 284 284 284 283 283 283 283 284 285
275 272 275 275 276 275 273 274 273 271 268 268 275 278 281 281 280 281 281 282 282 282 283 283 284 284 284 283 283 283 282 282 283 283 284 284 284 283 283 283 284 284 283 285
273 273 273 274 276 275 274 276 271 272 268 268 274 273 276 277 279 281 280 280 281 282 283 283 284 284 284 284 283 282 282 281 281 281 282 283 283 283 283 284 283 284 284 284
273 272 271 272 271 273 271 272 271 271 271 270 269 275 283 280 282 281 281 280 281 282 282 283 284 284 284 284 283 281 281 280 280 280 280 281 282 283 283 283 282 283 284 284
274 273 272 273 274 274 274 273 274 271 269 270 268 270 281 279 280 280 280 281 281 282 282 283 284 284 283 283 282 281 280 280 279 279 279 279 279 280 281 281 281 282 282 283
274 273 272 270 270 271 269 272 273 272 270 268 268 273 279 278 279 280 280 281 281 281 281 282 283 283 283 283 282 281 280 279 279 278 278 278 278 277 277 279 280 280 281 281
277 272 270 274 270 271 267 270 272 270 268 270 270 274 278 279 279 280 281 281 281 281 281 282 282 282 283 283 282 281 279 279 278 277 277 277 276 276 277 278 278 278 279 279
275 268 268 269 271 271 270 269 270 269 270 269 273 274 278 280 279 279 280 280 280 280 280 281 282 282 282 283 282 281 279 278 278 276 276 276 276 276 276 276 277 277 277 277
274 269 264 264 271 270 268 270 270 270 271 271 271 271 278 279 280 279 279 279 279 279 280 281 282 282 282 282 282 281 278 277 277 276 275 275 275 275 275 275 275 275 275 275
270 270 266 267 267 267 265 267 269 270 271 271 268 274 279 278 278 279 279 279 278 279 280 281 281 282 282 283 283 280 278 277 276 275 275 274 274 273 273 273 274 273 273 274
270 269 269 266 264 263 274 274 273 272 274 274 274 275 277 278 279 279 280 279 279 279 280 281 282 282 283 283 282 280 278 276 276 274 274 273 272 271 271 272 271 272 272 272
273 271 268 265 266 270 273 272 270 268 271 276 275 277 278 279 278 277 280 281 280 280 281 282 283 282 282 282 282 279 277 276 275 273 272 271 270 269 269 269 270 271 270 270
273 273 268 261 262 264 271 272 274 273 268 279 278 277 277 277 271 276 281 280 280 281 281 282 282 282 281 281 281 278 276 274 272 272 270 269 269 268 268 268 269 270 269 269
266 268 265 265 264 268 274 273 274 267 273 276 277 278 277 275 277 281 281 280 281 280 281 281 281 280 281 281 280 276 275 272 272 269 268 268 268 267 268 268 269 268 267 267
266 265 265 265 264 262 277 272 269 278 278 277 277 277 277 278 279 279 279 279 279 279 280 280 279 278 279 279 277 274 273 272 269 268 267 266 265 266 267 266 266 267 266 266
266 272 269 270 270 276 277 277 277 279 276 277 277 278 279 278 278 278 278 279 278 279 279 278 277 277 271 272 273 272 272 269 267 265 263 263 264 264 265 265 265 265 266 265
271 275 270 270 275 274 276 277 277 278 277 278 278 278 279 277 278 278 278 278 278 278 277 277 276 274 271 269 270 270 268 265 263 262 263 263 263 264 264 265 265 265 265 265
276 273 271 271 274 277 278 280 280 280 280 280 280 279 279 279 278 278 277 278 278 277 276 274 273 273 271 269 267 266 265 263 262 262 262 263 264 264 264 264 264 264 265 265
275 273 271 271 278 278 279 281 282 279 279 280 279 278 279 279 278 278 277 277 277 275 274 271 270 269 268 267 267 265 263 262 260 261 263 264 262 263 263 263 263 266 267 268
Wind_Speed
7 11 10 10 10 7 4 1 3 2 3 7 1 4 6 1 5 10 12 13 15 15 14 15 15 16 17 19 20 21 22 21 16 13 13 13 13 13 12 12 19 18 17 21
7 9 6 4 5 2 2 2 5 3 2 5 3 8 9 8 1 4 9 12 14 16 18 18 18 18 18 18 20 21 21 21 16 13 12 12 13 13 13 13 16 20 19 19
7 5 1 2 8 0 6 7 6 4 8 5 9 8 13 12 10 3 6 8 11 15 17 18 19 19 18 19 19 19 20 20 17 19 13 13 13 12 11 13 14 17 22 21
8 3 1 1 5 6 2 7 6 5 6 2 4 1 12 11 9 4 5 9 12 13 13 14 16 17 17 17 17 18 18 19 17 19 15 18 13 15 13 13 13 17 20 22
5 3 4 2 3 5 4 9 4 3 4 5 6 5 9 7 8 5 4 7 9 10 11 13 14 15 15 16 16 16 18 18 19 18 17 13 15 12 13 13 19 17 17 20
5 1 2 4 6 3 8 2 3 3 3 3 7 3 8 9 5 5 2 6 8 10 11 12 13 12 13 14 15 15 17 18 19 18 18 18 19 19 15 16 14 13 13 15
3 3 1 4 4 3 5 3 1 3 3 2 6 5 8 6 7 5 4 6 7 8 9 10 12 13 13 14 15 15 17 17 18 19 18 18 18 19 19 18 14 17 13 14
5 5 2 3 4 4 5 3 3 4 3 5 6 8 3 5 8 7 6 6 7 7 7 8 9 10 11 12 13 14 16 17 17 17 17 16 17 11 12 15 15 12 12 14
3 3 3 3 2 4 3 1 3 2 2 3 5 5 8 9 10 10 9 7 6 7 7 8 8 8 9 10 11 13 14 15 16 17 15 16 15 16 15 18 16 13 15 15
3 3 2 4 1 3 4 5 3 3 3 6 6 6 10 11 13 13 12 9 6 7 9 9 8 8 8 9 9 10 12 13 15 16 15 14 15 16 15 15 17 19 17 18
2 2 5 1 7 5 5 4 3 3 3 4 6 5 4 3 7 9 9 5 6 10 11 11 10 8 8 9 9 10 10 12 13 14 15 15 15 15 15 14 16 17 19 19
3 1 4 2 4 2 4 4 7 4 5 5 4 11 1 1 3 3 8 7 10 12 11 12 10 9 9 9 9 9 9 10 11 12 13 15 15 16 15 15 17 18 19 19
6 3 2 4 3 2 5 10 9 1 2 10 5 7 4 5 4 6 9 12 14 13 13 12 11 10 9 9 8 8 8 9 10 12 13 13 15 15 16 16 16 17 17 19
4 2 6 6 4 3 5 9 15 10 6 7 16 21 16 15 12 11 13 15 15 13 12 12 11 11 9 8 8 8 8 8 9 10 12 13 14 15 14 15 15 15 16 16
3 5 3 11 12 12 11 8 15 22 21 12 16 18 19 15 17 20 18 16 13 13 13 12 12 11 10 9 8 8 7 7 7 9 10 12 13 13 14 15 15 14 15 15
4 2 2 5 10 10 16 17 22 25 24 26 31 32 29 23 17 10 11 12 11 12 13 12 11 11 10 9 9 7 7 6 6 8 10 11 12 13 14 15 15 15 15 14
7 4 2 5 1 10 13 23 21 16 11 18 22 24 18 16 15 12 12 11 11 13 13 12 12 10 8 9 7 8 7 6 6 7 8 9 11 13 14 15 15 15 15 15
7 6 3 5 2 8 1 4 3 20 13 22 17 18 16 16 14 14 13 12 11 12 13 13 10 9 9 9 9 8 7 7 6 6 7 9 10 12 13 14 14 14 13 12
8 7 4 5 6 15 12 4 6 8 7 20 20 19 19 13 6 13 14 8 9 12 13 14 10 8 9 10 9 9 9 7 6 6 7 7 9 12 12 13 12 12 13 12
10 10 8 4 6 8 6 5 6 4 9 4 10 12 11 3 8 10 2 5 10 13 12 10 11 11 11 10 8 9 8 6 4 5 5 7 8 10 12 12 12 11 11 12
8 10 18 12 9 12 8 9 6 4 3 4 4 5 7 10 11 12 8 10 11 10 11 12 12 12 12 8 7 9 7 5 3 1 3 6 8 10 12 12 10 11 11 12
12 13 8 10 10 15 15 12 9 1 2 3 4 9 12 13 13 14 15 13 12 12 11 11 10 10 9 5 5 7 6 2 2 1 4 6 8 8 9 11 11 10 10 11
8 10 8 14 10 2 18 7 14 7 7 8 12 13 14 15 15 16 15 14 11 11 10 8 9 8 2 2 3 5 2 3 1 2 5 6 8 9 9 10 10 9 8 8
10 8 5 1 11 17 15 14 15 14 15 15 15 15 15 18 18 18 15 13 11 10 8 6 5 7 3 3 3 2 4 4 1 4 6 7 7 8 8 7 7 7 7 7
6 12 7 14 20 18 18 17 17 16 16 15 13 13 16 18 19 17 15 14 12 8 4 2 6 4 4 5 5 3 4 1 4 5 6 8 7 7 8 7 7 8 8 9
10 11 10 15 19 13 15 9 3 11 13 15 17 17 17 16 17 16 14 12 7 6 4 5 4 3 5 4 4 3 2 2 4 7 6 5 6 6 7 7 8 11 14 15
Wind_Direction
19 72 59 37 34 44 54 319 337 76 83 326 128 254 218 318 5 9 3 0 359 360 355 1 6 6 2 1 356 355 350 350 346 342 340 331 328 323 315 322 311 307 305 310
95 71 43 33 31 77 27 295 38 187 174 299 217 269 209 210 240 354 352 352 352 349 351 354 357 1 2 0 359 355 354 350 348 346 333 328 325 317 313 311 326 325 322 322
67 82 16 356 44 86 52 21 348 311 310 234 283 229 194 206 219 248 351 354 354 353 350 351 352 355 356 359 358 356 354 351 351 347 340 334 324 325 324 328 318 321 315 310
73 91 107 126 76 336 178 4 307 278 294 328 340 354 194 197 212 211 341 0 354 352 353 351 353 351 354 354 354 354 355 353 354 349 346 343 335 328 327 318 314 319 314 309
87 73 28 55 21 338 37 328 280 262 279 302 168 254 111 166 227 212 320 344 356 356 352 350 355 354 351 353 352 352 353 356 357 354 352 347 339 326 319 320 320 319 317 316
86 79 343 352 301 254 298 306 196 233 293 252 112 341 181 184 194 191 261 330 345 351 351 354 353 354 353 351 351 351 353 356 358 357 355 353 346 337 332 330 326 324 320 316
162 138 99 346 299 195 319 284 197 213 224 298 132 282 285 164 178 202 258 310 329 338 346 345 348 347 353 353 351 351 354 354 356 357 355 354 350 344 336 334 326 325 324 322
205 201 180 21 33 345 9 350 346 283 273 348 151 236 238 166 177 199 234 272 290 318 332 335 341 341 345 349 351 349 350 350 353 355 354 351 354 347 340 337 332 322 322 318
168 160 124 53 43 319 51 181 44 300 101 282 233 231 225 186 203 218 236 250 284 296 308 318 325 331 335 341 344 345 346 346 348 351 351 352 353 350 343 340 336 331 326 324
110 204 225 114 211 110 304 120 199 166 269 271 218 267 259 201 215 216 219 233 266 290 297 307 313 318 322 324 329 335 340 342 344 346 346 347 349 351 346 340 343 337 333 335
144 273 117 296 198 179 158 194 202 317 259 279 296 253 40 240 208 213 226 235 277 304 302 305 305 306 306 308 320 327 334 337 341 342 340 341 344 347 348 346 343 343 336 343
154 304 227 200 109 323 323 242 204 242 175 249 305 273 75 236 250 236 265 256 280 306 295 296 285 289 291 301 311 318 326 331 336 336 334 336 339 342 343 347 344 344 345 344
173 189 239 192 192 203 229 212 217 222 289 228 230 255 133 151 214 256 267 272 278 307 293 290 282 281 282 288 297 304 316 323 330 332 332 334 339 340 340 339 343 342 348 344
170 242 257 276 40 69 206 208 207 196 217 243 226 271 269 281 278 281 293 304 304 298 292 283 277 277 276 273 282 292 302 317 324 327 328 331 336 336 335 336 341 340 343 345
201 249 223 274 273 256 244 228 209 215 221 242 271 276 281 291 307 301 297 293 294 294 294 283 284 279 279 268 267 272 283 301 316 318 322 326 329 331 332 336 338 342 341 339
154 245 69 265 267 270 262 250 237 236 241 253 261 274 268 278 282 297 295 291 293 296 297 291 281 273 267 267 262 255 262 280 298 309 316 323 328 331 333 335 335 339 340 341
170 207 187 269 97 309 271 234 221 213 218 228 245 252 286 283 286 295 291 298 293 300 303 296 283 278 272 264 252 251 250 260 276 297 309 319 326 327 331 330 332 335 336 338
168 176 204 282 275 244 22 170 164 210 229 223 249 262 271 277 295 290 283 276 281 295 300 296 276 266 284 278 245 245 239 247 262 287 305 319 326 324 325 327 328 329 330 331
177 189 241 254 235 307 274 164 178 184 256 236 243 255 266 283 312 275 258 256 296 303 298 289 279 287 281 273 257 238 244 249 259 281 302 319 323 321 322 323 323 323 327 325
231 220 214 145 249 254 68 138 139 169 270 186 205 235 262 263 266 284 65 280 302 306 302 287 278 290 283 268 254 237 239 236 236 272 306 316 316 314 314 312 314 319 319 313
177 206 222 230 251 276 259 151 165 195 304 147 173 237 248 250 259 299 299 281 288 283 279 283 284 283 284 284 244 236 241 212 240 125 294 303 309 311 306 309 315 314 313 314
177 177 193 206 230 260 177 146 215 59 161 165 257 272 280 277 282 280 286 275 277 274 276 284 284 281 290 267 220 228 230 116 120 280 293 301 306 303 305 308 308 312 311 314
221 209 187 203 212 67 181 216 215 278 270 279 293 289 288 288 284 282 281 278 268 260 269 269 272 282 21 73 170 214 176 128 127 309 300 293 298 299 299 305 305 308 311 311
224 218 252 311 222 238 229 247 259 262 268 275 275 275 282 284 285 285 281 274 266 253 249 260 275 269 214 188 175 162 115 93 16 294 295 298 294 302 297 300 301 304 307 311
222 150 212 254 271 273 271 257 265 264 264 272 273 275 281 282 277 279 279 278 272 270 269 234 259 245 192 168 153 139 126 118 288 286 283 288 291 298 302 295 299 296 295 295
198 211 218 248 259 261 279 297 306 289 284 283 287 287 278 273 277 275 270 272 263 252 219 217 220 189 168 172 180 159 164 249 277 281 283 295 304 297 301 301 302 297 295 299